• Join FlightAware (Why Join?)
  • Login
  • US Flag 
01:17PM EST


 

Airport Tracker/Info


-or-


 

Live Flight TrackerFlight Track Log ✈ SWA2315 ✈ 21-Aug-2013 ✈ KABQ - KPHX

Flight Track Log - Related Links

Times and Time Zones

All times are in EDT time to prevent confusion due to time zone crossing. See the SWA2315 flight status page for this flight to view local times or setup timezone preferences in your user account.

Time Position Orientation Groundspeed Altitude Reporting Facility
EDT Latitude Longitude Course Direction KTS MPH feet Rate Location/Type
08:27AM 35.0422 -106.5847 192° South 166 191 6,200  Level Albuquerque Center
08:28AM 35.0036 -106.5947 192° South 199 229 8,000 2,061 Climbing Albuquerque Center
08:28AM 34.9883 -106.6294 242° Southwest 217 250 9,600 1,829 Climbing Albuquerque Center
08:29AM 35.0075 -106.7264 284° West 293 337 11,200 2,479 Climbing Albuquerque Center
08:30AM 35.0297 -106.8450 283° West 339 390 14,600 3,868 Climbing Albuquerque Center
08:31AM 35.0536 -106.9683 283° West 345 397 19,000 3,868 Climbing Albuquerque Center
08:32AM 35.0772 -107.0944 283° West 356 410 22,400 3,074 Climbing Albuquerque Center
08:33AM 35.1006 -107.2200 283° West 377 434 25,200 2,800 Climbing Albuquerque Center
08:34AM 35.1044 -107.3506 272° West 385 443 28,000 2,628 Climbing Albuquerque Center
08:35AM 35.0931 -107.4842 264° West 396 456 30,500 2,083 Climbing Albuquerque Center
08:36AM 35.0853 -107.6094 266° West 413 475 32,200 1,835 Climbing Albuquerque Center
08:38AM 35.0747 -107.7525 265° West 420 483 34,200 1,835 Climbing Albuquerque Center
08:39AM 35.0636 -107.8983 265° West 428 493 35,900 1,835 Climbing Albuquerque Center
08:40AM 35.0542 -108.0456 266° West 434 499 37,900 1,835 Climbing Albuquerque Center
08:41AM 35.0428 -108.1972 265° West 431 496 39,600 1,041 Climbing Albuquerque Center
08:42AM 35.0283 -108.3592 264° West 429 494 40,000 198 Climbing Albuquerque Center
08:43AM 34.9986 -108.4956 255° West 431 496 40,000  Level Albuquerque Center
08:44AM 34.9706 -108.6319 256° West 431 496 40,000  Level Albuquerque Center
08:45AM 34.9431 -108.7689 256° West 432 497 40,000  Level Albuquerque Center
08:46AM 34.9089 -108.9242 255° West 428 493 40,000  Level Albuquerque Center
08:47AM 34.8808 -109.0569 256° West 424 488 40,000  Level Albuquerque Center
08:48AM 34.8514 -109.1917 255° West 426 490 40,000  Level Albuquerque Center
08:49AM 34.8183 -109.3472 256° West 426 490 40,000  Level Albuquerque Center
08:50AM 34.7892 -109.4814 255° West 426 490 40,000  Level Albuquerque Center
08:51AM 34.7608 -109.6161 256° West 428 493 40,000 -893 Level Albuquerque Center
08:52AM 34.7319 -109.7492 255° West 425 489 38,200 -1,587 Descending Albuquerque Center
08:53AM 34.6761 -109.8861 244° Southwest 410 472 36,800 -1,091 Descending Albuquerque Center
08:54AM 34.6189 -110.0000 239° Southwest 409 471 36,000 -744 Descending Albuquerque Center
08:55AM 34.5608 -110.1167 239° Southwest 417 480 35,300 -843 Descending Albuquerque Center
08:56AM 34.4897 -110.2483 237° Southwest 418 481 34,300 -942 Descending Albuquerque Center
08:57AM 34.4294 -110.3658 238° Southwest 424 488 33,400 -893 Descending Albuquerque Center
08:58AM 34.3639 -110.5025 240° Southwest 448 516 32,500 -934 Descending Albuquerque Center
08:59AM 34.2958 -110.6294 237° Southwest 451 519 31,500 -1,537 Descending Albuquerque Center
09:00AM 34.2244 -110.7564 236° Southwest 455 524 29,400 -2,479 Descending Albuquerque Center
09:01AM 34.1583 -110.8831 238° Southwest 450 518 26,500 -2,754 Descending Albuquerque Center
09:02AM 34.0864 -110.9958 232° Southwest 438 504 23,800 -2,579 Descending Albuquerque Center
09:03AM 33.9981 -111.0814 219° Southwest 411 473 21,300 -2,430 Descending Albuquerque Center
09:04AM 33.9364 -111.1856 235° Southwest 385 443 18,900 -2,430 Descending Albuquerque Center
09:05AM 33.9053 -111.3114 253° West 388 447 16,400 -1,736 Descending Albuquerque Center
09:06AM 33.8722 -111.4244 251° West 362 417 15,400 -1,377 Descending Albuquerque Center
09:07AM 33.8219 -111.5172 237° Southwest 330 380 13,600 -1,785 Descending Albuquerque Center
09:08AM 33.7736 -111.6092 238° Southwest 324 373 11,800 -1,736 Descending Albuquerque Center
09:09AM 33.7278 -111.6967 238° Southwest 309 356 10,100 -885 Descending Albuquerque Center
09:10AM 33.6825 -111.7800 237° Southwest 298 343 10,000 -393 Descending Albuquerque Center
09:11AM 33.6375 -111.8611 236° Southwest 292 336 9,300 -574 Descending Albuquerque Center
09:12AM 33.6000 -111.9333 238° Southwest 269 310 8,900 -579 Descending Phoenix TRACON
09:13AM 33.5667 -112.0000 239° Southwest 248 285 8,200 -619 Descending Phoenix TRACON
09:14AM 33.5333 -112.0667 239° Southwest 199 229 7,600 -700 Descending Phoenix TRACON
09:15AM 33.5333 -112.1333 270° West 190 219 6,800 -1,053 Descending Phoenix TRACON
09:16AM 33.5167 -112.1833 248° West 184 212 5,600 -1,338 Descending Phoenix TRACON
09:17AM 33.4711 -112.2053 202° Southwest 184 212 3,900 -1,237 Descending Albuquerque Center
09:18AM 33.4439 -112.1531 122° Southeast 180 207 2,900 -857 Descending Albuquerque Center
09:19AM 33.4333 -112.1167 109° East 159 183 2,500 -771 Descending Phoenix TRACON
09:20AM 33.4333 -112.0500 90° East 141 162 1,500 -833 Descending Phoenix TRACON